Location: Balaclava NSW 2575, Australia
(34.4510°S, 150.4953°E)
Time: 12:46:00
(UTC+10:00)

XW-2C - Pass Details

Date: 29 July 2021
Orbit: 506 x 524 km, 97.5° (Epoch: 18 September)

Event Time Altitude Azimuth Distance (km) Brightness Sun altitude
Rises 05:27:44 0° 2° (N) 2,644 ? -17.9°
Reaches altitude 10° 05:29:51 10° 357° (N) 1,766 ? -17.5°
Maximum altitude 05:33:35 53° 280° (W) 662 ? -16.7°
Enters shadow 05:36:09 19° 208° (SSW) 1,311 ? -16.2°
